Regional Weather Roundup
Issued by NWS Bismarck, ND

Home | Current Version | Previous Version | Text Only | Print | Product List | Glossary On
Versions: 1 2 3 4 5 6 7 8 9 10 11 12 13 14 15 16 17 18 19 20 21 22 23 24 25 26 27 28 29 30 31 32 33 34 35 36 37 38 39 40 41 42 43 44 45 46 47 48 49 50
000
ASUS43 KBIS 271320
RWRBIS

NWR BROADCAST TEXT
NATIONAL WEATHER SERVICE BISMARCK ND
700 AM CST THU NOV 27 2014

NOTE: "FAIR" INDICATES FEW OR NO CLOUDS BELOW 12,000 FEET WITH NO
SIGNIFICANT WEATHER AND/OR OBSTRUCTIONS TO VISIBILITY.


CITY           SKY/WX    TMP DP  RH WIND       PRES   REMARKS
WILLISTON      CLOUDY    11   6  81 CALM      30.19F
MINOT          CLOUDY    -6 -11  79 CALM      30.28F
MINOT AFB      CLOUDY    -6 -10  83 SE3       30.28F
BISMARCK       MOCLDY    -4  -9  79 E6        30.36F WCI -16
DICKINSON      CLOUDY    14  11  87 S13       30.14F WCI   0
GARRISON         N/A      9   5  84 S15       30.28F WCI  -8
HETTINGER ARPT CLOUDY    12  10  92 SE12      30.18F WCI  -2
JAMESTOWN      CLOUDY   -22 -29  70 S6        30.42F WCI -38
BEACH          CLOUDY    19  18  93 SE13      30.11F WCI   7
CARRINGTON     FAIR     -18 -22  83 S7        30.39F WCI -35
CROSBY         CLOUDY     9   7  92 S6        30.19F WCI  -1
HARVEY         PTSUNNY  -20 -26  76 SE6       30.36F WCI -36
HAZEN          PTSUNNY    5   0  78 S7        30.29F WCI  -7
LINTON         FAIR      -8 -11  84 E5        30.36F WCI -19
MANDAN         PTSUNNY   -2  -8  78 SE8       30.32F WCI -17
OAKES            N/A    -18 -22  83 CALM      30.47S
RUGBY          FAIR     -13 -18  77 SE6       30.35F WCI -27
STANLEY        CLOUDY     9   9 100 S10       30.19F WCI  -6
TIOGA          CLOUDY     9   9 100 S10       30.21F WCI  -6
$$

CITY           SKY/WX    TMP DP  RH WIND       PRES   REMARKS
GRAND FORKS    PTCLDY   -16 -20  82 S6        30.51S WCI -31
GRAND FORKS AF PTCLDY   -14 -19  76 SW5       30.50S WCI -26
DEVILS LAKE    PTCLDY    -6 -17  59 S6        30.36S WCI -18
FARGO          MOCLDY   -12 -18  74 CALM      30.53F
CANDO          FAIR     -17 -20  83 S5        30.39S WCI -29
CAVALIER       FAIR     -11 -17  77 S6        30.47F WCI -25
GRAFTON        FAIR     -15 -20  76 S6        30.49F WCI -29
GWINNER        SUNNY    -15 -22  70 SW5       30.49F WCI -27
LANGDON        FAIR     -13 -18  77 SW9       30.36F WCI -31
ROLLA          FAIR      -9 -13  84 SW9       30.32F WCI -27
WALHALLA         N/A    -13 -18  77 S5        30.46F WCI -25
$$

CITY           SKY/WX    TMP DP  RH WIND       PRES   REMARKS
ABERDEEN       MOCLDY   -13 -18  78 CALM      30.46F
MOBRIDGE       CLOUDY     2  -4  76 SE10      30.32F WCI -14
BUFFALO          N/A     19  16  88 SE15      30.05F WCI   5
RAPID CITY     CLOUDY    19  17  92 SE9       30.14F WCI   8
GLASGOW        LGT SNOW  21  18  88 SE21      29.98F FOG     WCI   5
SIDNEY         CLOUDY    19  12  73 E5        30.15F WCI  13
WOLF POINT     CLOUDY    17  12  80 E13       30.10F WCI   4
GLENDIVE       CLOUDY    21  18  86 E5        30.09F WCI  15
MILES CITY     CLOUDY    26  21  81 SE13      30.03F WCI  15
BAKER          FLURRIES  22  17  81 SE18      30.08F WCI   7
$$

CITY           SKY/WX    TMP DP  RH WIND       PRES   REMARKS
BILLINGS       CLOUDY    28  26  92 S12       29.96F WCI  18
GREAT FALLS    PTCLDY    39  31  72 SW13      29.82F
REGINA         CLOUDY     9   5  85 SE14      30.13F WCI  -8
ESTEVAN        FLURRIES   1  -2  85 E7        30.20F WCI -11
$$



USA.gov is the U.S. government's official web portal to all federal, state and local government web resources and services.